This is the latest recevied weather packets stored in our database for station/object N3SBK. If no packets are shown the sender has not sent any weather packets the latest 10 day(s).
| Time | Temp. | Humidity | Pressure | Rain* | Wind** | Luminosity | Snow |
|---|---|---|---|---|---|---|---|
| 1778062875 | 12.78° C | 94% | 998 hPa | 0 mm | - | 1 W/m² | - |
| 1778062572 | 12.78° C | 94% | 998.2 hPa | 1.27 mm | - | 1 W/m² | - |
| 1778062268 | 12.78° C | 94% | 998 hPa | 4.83 mm | - | 0 W/m² | - |
| 1778061967 | 12.78° C | 94% | 998.1 hPa | 3.56 mm | - | 0 W/m² | - |
| 1778061665 | 12.78° C | 93% | 998 hPa | 0 mm | - | 0 W/m² | - |
| 1778061364 | 12.78° C | 93% | 998.2 hPa | 0 mm | - | 0 W/m² | - |
| 1778061060 | 12.78° C | 93% | 998.3 hPa | 0 mm | - | 0 W/m² | - |
| 1778060757 | 12.78° C | 93% | 998.4 hPa | 0 mm | - | 0 W/m² | - |
| 1778060455 | 12.78° C | 92% | 998.5 hPa | 0 mm | - | 0 W/m² | - |
| 1778060153 | 12.78° C | 92% | 998.4 hPa | 0 mm | - | 0 W/m² | - |
| 1778059850 | 12.78° C | 92% | 998.3 hPa | 1.27 mm | - | 0 W/m² | - |
| 1778059548 | 12.78° C | 91% | 998 hPa | 1.27 mm | - | 0 W/m² | - |
| 1778059244 | 12.78° C | 91% | 998.2 hPa | 0 mm | - | 0 W/m² | - |
| 1778058943 | 13.33° C | 91% | 998.2 hPa | 0 mm | - | 0 W/m² | - |
| 1778058640 | 13.33° C | 90% | 998.2 hPa | 0 mm | - | 0 W/m² | - |
| 1778058338 | 13.33° C | 89% | 998.3 hPa | 1.78 mm | - | 0 W/m² | - |
| 1778058034 | 13.33° C | 88% | 998.5 hPa | 1.78 mm | - | 0 W/m² | - |
| 1778057731 | 13.89° C | 86% | 998.3 hPa | 0 mm | - | 0 W/m² | - |
| 1778057427 | 13.89° C | 87% | 998.4 hPa | 0 mm | - | 0 W/m² | - |
| 1778057124 | 13.89° C | 85% | 998.5 hPa | 0 mm | - | 0 W/m² | - |
| 1778056820 | 13.89° C | 83% | 998.5 hPa | 0 mm | - | 0 W/m² | - |
| 1778056518 | 13.89° C | 84% | 998.5 hPa | 0 mm | - | 0 W/m² | - |
| 1778056215 | 13.89° C | 84% | 998.4 hPa | 0 mm | - | 0 W/m² | - |
| 1778055912 | 13.89° C | 84% | 998.1 hPa | 0 mm | - | 0 W/m² | - |
| 1778055607 | 13.89° C | 85% | 998.3 hPa | 0 mm | - | 0 W/m² | - |
* Rain latest hour (hover to see other rain measurements)
** Current wind speed in m/s (hover to see current wind gust speed)